Regional Weather Roundup
Issued by NWS Kansas City/Pleasant Hill, MO

Home | Current Version | Previous Version | Text Only | Print | Product List | Glossary On
Versions: 1 2 3 4 5 6 7 8 9 10 11 12 13 14 15 16 17 18 19 20 21 22 23 24 25 26 27 28 29 30 31 32 33 34 35 36 37 38 39 40 41 42 43 44 45 46 47 48 49 50
000
ASUS43 KEAX 051611
RWREAX

WEATHER ROUNDUP FOR EASTERN KANSAS AND NORTHWEST MISSOURI
NATIONAL WEATHER SERVICE KANSAS CITY/PLEASANT HILL MO
1100 AM CDT TUE MAY 05 2015

KSZ040-057-103>105-MOZ028-029-037-043-051700-
...KANSAS CITY METROPOLITAN AREA...

CITY           SKY/WX    TMP DP  RH WIND       PRES   REMARKS
K.C. INTL      MOSUNNY   75  63  66 S12       30.12R
K.C. DOWNTOWN  MOSUNNY   75  61  61 S14       30.11R
LEES SUMMIT    SUNNY     75  60  59 S8        30.13S
OLATHE - IXD   SUNNY     75  60  59 S15       30.13R
OLATHE - OJC   SUNNY     74  61  63 S12       30.12R
LAWRENCE       MOSUNNY   74  60  61 S9        30.11R

$$

MOZ001>008-011>017-020>025-030>033-038>040-044>046-053-054-051700-
...NORTHERN AND CENTRAL MISSOURI...

CITY           SKY/WX    TMP DP  RH WIND       PRES   REMARKS
ST. JOSEPH     CLOUDY    70  62  76 S7        30.11R
MOSBY          SUNNY     72  61  68 S8        30.12S
WARRENSBURG    SUNNY     77  57  50 S9        30.13S
WHITEMAN AFB   SUNNY     78  60  54 S14G20    30.13S
CLINTON        SUNNY     79  59  50 S10       30.15R
SEDALIA        MOSUNNY   78  58  49 SW12      30.16S
WARSAW         NOT AVBL
MARSHALL       SUNNY     81  59  47 S10       30.15S
CHILLICOTHE      N/A     72  63  73 S3        30.14F
MOBERLY        MOSUNNY   77  59  53 SW8       30.17R
KIRKSVILLE     MOSUNNY   73  64  73 SE5       30.16S

$$

MOZ041-047>049-056>058-063>065-088>090-097-051700-
...EASTERN AND SOUTHERN MISSOURI...

CITY           SKY/WX    TMP DP  RH WIND       PRES   REMARKS
ST. LOUIS INTL MOSUNNY   82  55  39 SW12      30.19F
SPIRIT OF STL  FAIR      79  56  45 SW8G17    30.17F
COLUMBIA       SUNNY     77  59  53 S13       30.17S
JEFFERSON CITY SUNNY     77  57  50 S13       30.16S
MEXICO         SUNNY     81  63  54 SW9       30.17R
HANNIBAL       SUNNY     81  55  41 W5        30.16S
ROLLA          SUNNY     77  60  55 S8        30.18S
LEBANON        SUNNY     77  59  53 S14       30.18F
OSAGE BEACH    SUNNY     81  57  44 S6        30.16S
SPRINGFIELD    MOSUNNY   75  61  61 S12       30.16R
BRANSON        PTSUNNY   72  61  68 S14       30.19S
NEVADA         SUNNY     77  57  50 S10       30.14S
JOPLIN         PTSUNNY   75  62  64 S9        30.13S
WEST PLAINS    CLOUDY    69  59  70 S5        30.23S

$$

IAZ060-094-KSZ022-034>040-054-083-096-NEZ052-066-093-051700-
...KANSAS...SOUTHEAST NEBRASKA AND IOWA...

CITY           SKY/WX    TMP DP  RH WIND       PRES   REMARKS
TOPEKA         PTSUNNY   73  60  63 S10       30.10S
MANHATTAN      PTSUNNY   73  61  65 S12G21    30.06S
EMPORIA        CLOUDY    72  57  59 S16       30.08S
CHANUTE        PTSUNNY   74  60  61 S14       30.10F
WICHITA        CLOUDY    72  56  57 S21G28    30.04S
OMAHA          CLOUDY    67  60  78 S7        30.09S
LINCOLN        CLOUDY    67  60  78 SE7       30.08S
FALLS CITY     CLOUDY    67  62  84 SE9       30.09S
LAMONI         CLOUDY    70  62  76 SE9       30.13R
DES MOINES     CLOUDY    70  61  73 S10       30.11S

$$



USA.gov is the U.S. government's official web portal to all federal, state and local government web resources and services.